Overview Statistics Trail Chart Weather Telemetry Raw packets
 

This is the latest recevied weather packets stored in our database for station/object K6POO-1. If no packets are shown the sender has not sent any weather packets the latest 10 day(s).

<< 29 30 31 32 33 34 35 >>
Time Temp. Humidity Pressure Rain* Wind** Luminosity Snow
1788488166 17.22° C 91% 1012.1 hPa 0.51 mm - 10 W/m² -
1788487860 17.22° C 90% 1012.2 hPa 0.51 mm - 13 W/m² -
1788487555 17.22° C 90% 1012.1 hPa 0 mm - 12 W/m² -
1788487245 17.22° C 90% 1012 hPa 0 mm - 12 W/m² -
1788486940 17.22° C 89% 1012.2 hPa 0 mm - 16 W/m² -
1788486638 17.78° C 88% 1012.1 hPa 0 mm - 20 W/m² -
1788486332 18.33° C 87% 1012.2 hPa 0 mm - 24 W/m² -
1788486028 18.89° C 87% 1012.2 hPa 0 mm - 27 W/m² -
1788485725 18.89° C 86% 1012.2 hPa 0 mm - 25 W/m² -
1788485421 18.89° C 85% 1012.1 hPa 0 mm - 25 W/m² -
1788485120 19.44° C 84% 1012 hPa 0 mm - 21 W/m² -
1788484815 19.44° C 84% 1012 hPa 0 mm - 48 W/m² -
1788484509 19.44° C 83% 1012 hPa 0 mm - 48 W/m² -
1788484205 19.44° C 83% 1012.1 hPa 0 mm - 41 W/m² -
1788483901 19.44° C 82% 1012.1 hPa 0 mm - 64 W/m² -
1788483601 19.44° C 82% 1012.1 hPa 0 mm - 63 W/m² -
1788483297 20° C 82% 1012.3 hPa 0 mm - 83 W/m² -
1788482997 19.44° C 82% 1012.3 hPa 0 mm - 95 W/m² -
1788482693 20° C 82% 1012.1 hPa 0 mm - 122 W/m² -
1788482393 20° C 81% 1012.2 hPa 0 mm - 145 W/m² -
1788482089 20° C 81% 1012.2 hPa 0 mm - 118 W/m² -
1788481784 19.44° C 82% 1012.1 hPa 0 mm - 114 W/m² -
1788481481 20° C 81% 1012.1 hPa 0 mm - 131 W/m² -
1788481179 20° C 81% 1012.1 hPa 0 mm - 108 W/m² -
1788480875 20° C 80% 1012.2 hPa 0 mm - 128 W/m² -

* Rain latest hour (hover to see other rain measurements)
** Current wind speed in m/s (hover to see current wind gust speed)